Погода в Савино

Россия / Ивановская область     56°35′30″N   41°12′38″E
темп.,
°C
ветер,
м/с
пор.,
м/с
влажн.,
%
обл.,
%
осадки,
мм/ч
давл.,
гПа
погр.,
м
28 января, чт
чт2800:00−2зюз1293100 0.0 101085
03:00−2ю1197100 0.1 100937
06:00−2в1298100 0.4 100933
09:000вюв2399100 1.4 1008111
12:00+1вюв2599100 1.8 1009181
15:00−1ююв4796100 2.6 1007371
18:00−1юв4993100 0.2 1007516
21:00−2юв3694100 0.4 1007346
29 января, пт
пт2900:00−2юв3795100 0.4 1007409
03:00−2юв3894100 0.4 1006409
06:00−2юв51095100 1.1 1004474
09:00−3юв4896100 2.3 1002414
12:00−2юв4995100 1.0 1001462
15:000юв41091100 1.0 1000791
18:00−1ююв51189100 0.1 999754
21:00−3ююв51291100 0.1 998575
30 января, сб
сб3000:00−2ююв51090100 0.1 998725
03:00−3ююв41094100 0.1 997469
06:00−4ююв4109599 0.1 996462
09:00−4ююв499299 0.4 995486
12:00−2ю369086 0.0 995579
15:00−3юз478492 0.1 996813
18:00−5ююз498997 0.0 998636
21:00−5ююз4108899 0.1 999763
31 января, вс
вс3100:00−6ю3993100 0.0 1000363
03:00−5ююв4993100 0.1 998485
06:00−4юв4996100 1.5 995590
09:00−3вюв4896100 2.7 993362
12:00+1ююв41099100 1.0 990494
15:00+1ююв51198100 2.9 987653
18:00+1ю41099100 0.9 986465
21:000юз4898100 2.0 988423
1 февраля, пн
пн100:00−4з81587100 0.8 994857
03:00−7зюз51390100 0.8 1001555
06:00−9юз51292100 0.0 1005441
09:00−9юз4119498 0.1 1008380
12:00−7юз4892100 0.0 1010419
15:00−6ю3792100 0.0 1009420
18:00−6юв3795100 0.0 1008305
21:00−6вюв3696100 1.2 1005345